�������l�o���
Date,Time,MP-1(��Sv/h),MP-2(��Sv/h),MP-3(��Sv/h),MP-4(��Sv/h),MP-5(��Sv/h),MP-6(��Sv/h),MP-7(��Sv/h),MP-8(��Sv/h),����,����(m/s),���J
2022/04/28,00:00,0.580,0.866,0.551,1.058,0.750,0.350,0.604,0.570,�k,8.4,��
2022/04/28,00:10,0.580,0.865,0.550,1.058,0.749,0.351,0.603,0.570,�k,6.2,��
2022/04/28,00:20,0.580,0.864,0.551,1.060,0.749,0.350,0.604,0.569,�k,7.1,��
2022/04/28,00:30,0.580,0.865,0.550,1.060,0.749,0.348,0.603,0.570,�k�k��,6.3,��
2022/04/28,00:40,0.580,0.866,0.550,1.061,0.748,0.349,0.603,0.571,�k,4.9,��
2022/04/28,00:50,0.581,0.865,0.551,1.059,0.750,0.349,0.603,0.571,�k,3.2,��
2022/04/28,01:00,0.580,0.866,0.551,1.061,0.750,0.350,0.603,0.570,�k�k��,5.6,��
2022/04/28,01:10,0.579,0.865,0.551,1.059,0.749,0.350,0.604,0.570,�k�k��,6.4,��
2022/04/28,01:20,0.580,0.865,0.550,1.059,0.748,0.348,0.602,0.571,�k�k��,7.3,��
2022/04/28,01:30,0.581,0.866,0.551,1.060,0.750,0.350,0.604,0.569,�k�k��,8.1,��
2022/04/28,01:40,0.580,0.864,0.550,1.061,0.749,0.349,0.602,0.569,�k�k��,7.3,��
2022/04/28,01:50,0.580,0.864,0.549,1.058,0.749,0.349,0.603,0.569,�k�k��,7.6,��
2022/04/28,02:00,0.580,0.864,0.550,1.059,0.749,0.348,0.603,0.569,�k�k��,7.7,��
2022/04/28,02:10,0.579,0.864,0.550,1.058,0.750,0.349,0.603,0.571,�k�k��,8.7,��
2022/04/28,02:20,0.580,0.864,0.548,1.059,0.750,0.349,0.604,0.569,�k�k��,8.4,��
2022/04/28,02:30,0.579,0.864,0.551,1.060,0.748,0.350,0.601,0.568,�k�k��,8.0,��
2022/04/28,02:40,0.579,0.865,0.549,1.056,0.748,0.349,0.602,0.570,�k�k��,7.5,��
2022/04/28,02:50,0.579,0.864,0.549,1.058,0.749,0.349,0.603,0.571,�k�k��,7.6,��
2022/04/28,03:00,0.580,0.866,0.549,1.060,0.748,0.348,0.603,0.570,�k�k��,6.4,��
2022/04/28,03:10,0.580,0.864,0.549,1.058,0.748,0.348,0.602,0.570,�k,6.5,��
2022/04/28,03:20,0.579,0.864,0.549,1.059,0.750,0.348,0.604,0.568,�k�k��,6.2,��
2022/04/28,03:30,0.580,0.862,0.550,1.058,0.749,0.349,0.604,0.570,�k,5.2,��
2022/04/28,03:40,0.579,0.863,0.550,1.060,0.748,0.349,0.602,0.570,�k,5.6,��
2022/04/28,03:50,0.580,0.865,0.550,1.058,0.749,0.348,0.602,0.570,�k,4.0,��
2022/04/28,04:00,0.579,0.865,0.550,1.059,0.749,0.348,0.604,0.569,�k,4.6,��
2022/04/28,04:10,0.578,0.866,0.549,1.059,0.748,0.348,0.602,0.570,�k,5.1,��
2022/04/28,04:20,0.581,0.863,0.550,1.059,0.748,0.348,0.603,0.570,�k,5.5,��
2022/04/28,04:30,0.578,0.862,0.549,1.058,0.749,0.349,0.603,0.569,�k,5.5,��
2022/04/28,04:40,0.579,0.866,0.550,1.058,0.748,0.348,0.603,0.569,�k,6.2,��
2022/04/28,04:50,0.579,0.864,0.549,1.057,0.749,0.348,0.602,0.569,�k,6.0,��
2022/04/28,05:00,0.577,0.864,0.551,1.060,0.750,0.348,0.602,0.570,�k,5.9,��
2022/04/28,05:10,0.580,0.862,0.551,1.057,0.749,0.348,0.604,0.569,�k,5.1,��
2022/04/28,05:20,0.579,0.862,0.548,1.058,0.750,0.349,0.601,0.570,�k,5.8,��
2022/04/28,05:30,0.580,0.863,0.550,1.062,0.749,0.348,0.602,0.569,�k�k��,5.2,��
2022/04/28,05:40,0.578,0.865,0.552,1.060,0.750,0.349,0.602,0.569,�k,6.0,��
2022/04/28,05:50,0.578,0.865,0.549,1.061,0.749,0.348,0.603,0.569,�k�k��,5.9,��
2022/04/28,06:00,0.580,0.865,0.551,1.057,0.749,0.349,0.602,0.570,�k�k��,3.6,��
2022/04/28,06:10,0.578,0.863,0.549,1.059,0.748,0.348,0.603,0.571,�k�k��,3.9,��
2022/04/28,06:20,0.578,0.864,0.550,1.059,0.749,0.347,0.602,0.570,�k,4.0,��
2022/04/28,06:30,0.578,0.864,0.550,1.060,0.748,0.348,0.602,0.571,�k�k��,3.8,��
2022/04/28,06:40,0.579,0.864,0.549,1.058,0.747,0.348,0.603,0.569,�k��,3.2,��
2022/04/28,06:50,0.579,0.865,0.549,1.059,0.749,0.348,0.603,0.568,�k�k��,3.5,��
2022/04/28,07:00,0.580,0.865,0.550,1.058,0.752,0.347,0.601,0.568,�k��,3.4,��
2022/04/28,07:10,0.580,0.864,0.550,1.059,0.751,0.348,0.604,0.568,�k�k��,3.2,��
2022/04/28,07:20,0.580,0.864,0.549,1.059,0.750,0.347,0.603,0.567,�k�k��,3.7,��
2022/04/28,07:30,0.579,0.866,0.551,1.059,0.749,0.348,0.601,0.569,�k�k��,3.6,��
2022/04/28,07:40,0.579,0.865,0.548,1.059,0.749,0.348,0.603,0.568,�k�k��,3.7,��
2022/04/28,07:50,0.580,0.865,0.551,1.057,0.749,0.348,0.602,0.570,�k�k��,3.6,��
2022/04/28,08:00,0.579,0.863,0.551,1.059,0.748,0.349,0.603,0.568,�k,3.8,��
2022/04/28,08:10,0.578,0.865,0.550,1.058,0.748,0.348,0.601,0.569,�k,3.0,��
2022/04/28,08:20,0.580,0.865,0.550,1.059,0.749,0.349,0.602,0.568,�k�k��,2.8,��
2022/04/28,08:30,0.579,0.862,0.550,1.059,0.748,0.347,0.603,0.568,�k,1.7,��
2022/04/28,08:40,0.580,0.863,0.550,1.060,0.746,0.348,0.603,0.568,���k��,0.9,��
2022/04/28,08:50,0.579,0.864,0.550,1.061,0.746,0.348,0.603,0.569,�k��,2.0,��
2022/04/28,09:00,0.579,0.863,0.550,1.059,0.748,0.347,0.602,0.568,���k��,1.9,��
2022/04/28,09:10,0.580,0.862,0.550,1.061,0.749,0.348,0.603,0.569,���k��,0.9,��
2022/04/28,09:20,0.581,0.862,0.551,1.062,0.750,0.349,0.604,0.568,�쐼,2.0,��
2022/04/28,09:30,0.580,0.862,0.551,1.060,0.748,0.349,0.603,0.570,���쐼,1.5,��
2022/04/28,09:40,0.578,0.864,0.551,1.061,0.749,0.348,0.604,0.567,���쓌,1.1,��
2022/04/28,09:50,0.578,0.864,0.550,1.061,0.748,0.349,0.602,0.568,�k��,0.9,��
2022/04/28,10:00,0.576,0.861,0.552,1.061,0.748,0.347,0.603,0.568,�k��,0.9,��
2022/04/28,10:10,0.574,0.863,0.548,1.061,0.747,0.347,0.602,0.568,���k��,1.1,��
2022/04/28,10:20,0.574,0.863,0.550,1.060,0.747,0.344,0.605,0.568,-,CALM,��
2022/04/28,10:30,0.574,0.863,0.548,1.061,0.747,0.347,0.603,0.568,-,CALM,��
2022/04/28,10:40,0.574,0.860,0.547,1.061,0.750,0.344,0.604,0.567,-,CALM,��
2022/04/28,10:50,0.575,0.863,0.548,1.062,0.748,0.345,0.606,0.568,�k�k��,0.9,��
2022/04/28,11:00,0.575,0.862,0.548,1.061,0.748,0.345,0.605,0.567,�k��,1.4,��
2022/04/28,11:10,0.578,0.863,0.547,1.063,0.748,0.346,0.604,0.566,�k,0.9,��
2022/04/28,11:20,0.580,0.864,0.548,1.062,0.747,0.348,0.605,0.567,-,CALM,��
2022/04/28,11:30,0.579,0.863,0.548,1.062,0.749,0.347,0.605,0.568,��,0.8,��
2022/04/28,11:40,0.578,0.864,0.549,1.061,0.748,0.348,0.605,0.568,��,0.6,��
2022/04/28,11:50,0.579,0.863,0.550,1.061,0.749,0.349,0.605,0.567,�쓌,1.7,��
2022/04/28,12:00,0.579,0.866,0.550,1.061,0.750,0.346,0.604,0.569,���쓌,2.3,��
2022/04/28,12:10,0.580,0.866,0.549,1.062,0.751,0.348,0.603,0.567,���쓌,1.4,��
2022/04/28,12:20,0.581,0.867,0.550,1.060,0.752,0.349,0.604,0.569,��,1.4,��
2022/04/28,12:30,0.580,0.866,0.548,1.061,0.751,0.349,0.604,0.568,���쓌,1.5,��
2022/04/28,12:40,0.580,0.865,0.549,1.062,0.752,0.349,0.605,0.568,���쓌,1.7,��
2022/04/28,12:50,0.581,0.864,0.550,1.065,0.753,0.348,0.606,0.569,���쓌,1.7,��
2022/04/28,13:00,0.579,0.867,0.550,1.064,0.751,0.348,0.605,0.568,��쓌,2.5,��
2022/04/28,13:10,0.581,0.865,0.551,1.064,0.752,0.349,0.606,0.568,���쓌,1.1,��
2022/04/28,13:20,0.580,0.865,0.550,1.062,0.750,0.348,0.607,0.567,��쓌,2.2,��
2022/04/28,13:30,0.580,0.865,0.551,1.062,0.751,0.347,0.607,0.569,�쓌,2.3,��
2022/04/28,13:40,0.580,0.865,0.551,1.062,0.752,0.349,0.607,0.569,���쓌,3.2,��
2022/04/28,13:50,0.581,0.867,0.550,1.064,0.753,0.349,0.606,0.569,���쓌,2.3,��
2022/04/28,14:00,0.581,0.866,0.551,1.061,0.751,0.348,0.608,0.569,�쓌,3.4,��
2022/04/28,14:10,0.581,0.867,0.551,1.063,0.751,0.348,0.607,0.569,���쓌,2.0,��
2022/04/28,14:20,0.581,0.867,0.551,1.067,0.751,0.349,0.608,0.569,�쓌,3.5,��
2022/04/28,14:30,0.582,0.866,0.551,1.065,0.751,0.350,0.608,0.569,�쓌,3.7,��
2022/04/28,14:40,0.581,0.870,0.551,1.063,0.752,0.349,0.608,0.569,�쓌,3.5,��
2022/04/28,14:50,0.581,0.867,0.552,1.062,0.753,0.348,0.608,0.570,�쓌,3.6,��
2022/04/28,15:00,0.582,0.864,0.552,1.062,0.752,0.349,0.608,0.570,��쓌,4.1,��
2022/04/28,15:10,0.583,0.869,0.551,1.064,0.753,0.347,0.608,0.569,��쓌,4.6,��
2022/04/28,15:20,0.581,0.867,0.550,1.061,0.754,0.350,0.607,0.568,��쓌,5.1,��
2022/04/28,15:30,0.583,0.866,0.551,1.062,0.754,0.347,0.607,0.569,��쓌,3.8,��
2022/04/28,15:40,0.583,0.867,0.551,1.063,0.752,0.347,0.608,0.568,��쓌,4.0,��
2022/04/28,15:50,0.582,0.868,0.551,1.062,0.753,0.349,0.609,0.571,��쓌,4.5,��
2022/04/28,16:00,0.581,0.870,0.551,1.063,0.753,0.347,0.610,0.570,��쓌,4.6,��
2022/04/28,16:10,0.580,0.869,0.550,1.063,0.753,0.347,0.609,0.569,��쓌,3.0,��
2022/04/28,16:20,0.580,0.868,0.551,1.062,0.755,0.350,0.607,0.569,��쓌,3.6,��
2022/04/28,16:30,0.582,0.869,0.552,1.060,0.754,0.348,0.608,0.568,��쓌,4.2,��
2022/04/28,16:40,0.582,0.870,0.551,1.063,0.751,0.350,0.608,0.567,��쓌,4.3,��
2022/04/28,16:50,0.581,0.870,0.550,1.062,0.755,0.350,0.608,0.569,��쓌,3.6,��
2022/04/28,17:00,0.580,0.871,0.552,1.062,0.754,0.351,0.608,0.569,��쓌,2.6,��
2022/04/28,17:10,0.583,0.873,0.551,1.064,0.752,0.350,0.606,0.568,��쓌,5.0,��
2022/04/28,17:20,0.582,0.869,0.551,1.065,0.752,0.348,0.607,0.571,��,4.3,��
2022/04/28,17:30,0.581,0.871,0.550,1.062,0.751,0.351,0.607,0.572,��쓌,4.6,��
2022/04/28,17:40,0.581,0.871,0.551,1.064,0.751,0.350,0.607,0.570,��,5.5,��
2022/04/28,17:50,0.581,0.871,0.554,1.065,0.750,0.349,0.606,0.572,��쓌,5.7,��
2022/04/28,18:00,0.584,0.871,0.551,1.065,0.752,0.349,0.606,0.571,��,5.3,��
2022/04/28,18:10,0.583,0.871,0.551,1.064,0.752,0.350,0.606,0.572,��,7.5,��
2022/04/28,18:20,0.584,0.872,0.552,1.068,0.753,0.350,0.607,0.571,��,7.0,��
2022/04/28,18:30,0.582,0.871,0.552,1.067,0.755,0.352,0.608,0.571,��,6.8,��
2022/04/28,18:40,0.583,0.871,0.552,1.066,0.756,0.350,0.608,0.572,��,7.3,��
2022/04/28,18:50,0.583,0.871,0.553,1.065,0.756,0.350,0.607,0.571,��,8.1,��
2022/04/28,19:00,0.584,0.871,0.553,1.065,0.756,0.350,0.609,0.571,��,7.0,��
2022/04/28,19:10,0.582,0.872,0.554,1.066,0.756,0.350,0.610,0.571,��,6.8,��
2022/04/28,19:20,0.584,0.874,0.553,1.066,0.755,0.350,0.608,0.571,��,7.2,��
2022/04/28,19:30,0.584,0.871,0.552,1.067,0.757,0.349,0.607,0.571,��,7.2,��
2022/04/28,19:40,0.585,0.871,0.552,1.068,0.756,0.349,0.608,0.570,��,6.7,��
2022/04/28,19:50,0.583,0.874,0.554,1.065,0.757,0.349,0.610,0.570,��,7.4,��
2022/04/28,20:00,0.582,0.872,0.553,1.065,0.756,0.351,0.609,0.572,��,7.5,��
2022/04/28,20:10,0.583,0.872,0.552,1.065,0.756,0.350,0.608,0.572,��,8.0,��
2022/04/28,20:20,0.586,0.871,0.554,1.067,0.756,0.350,0.609,0.569,��,7.3,��
2022/04/28,20:30,0.582,0.873,0.555,1.066,0.756,0.349,0.609,0.572,��,7.5,��
2022/04/28,20:40,0.582,0.873,0.553,1.064,0.756,0.349,0.607,0.571,��,7.2,��
2022/04/28,20:50,0.582,0.871,0.552,1.067,0.755,0.350,0.607,0.571,��,7.8,��
2022/04/28,21:00,0.582,0.871,0.552,1.064,0.756,0.349,0.608,0.571,��,7.5,��
2022/04/28,21:10,0.583,0.872,0.554,1.065,0.756,0.351,0.607,0.570,��,8.0,��
2022/04/28,21:20,0.583,0.871,0.552,1.066,0.754,0.349,0.608,0.570,��,6.8,��
2022/04/28,21:30,0.583,0.871,0.552,1.065,0.754,0.349,0.609,0.570,��,6.4,��
2022/04/28,21:40,0.584,0.871,0.555,1.068,0.755,0.351,0.609,0.570,��,5.4,��
2022/04/28,21:50,0.583,0.871,0.552,1.066,0.756,0.350,0.607,0.569,��,4.7,��
2022/04/28,22:00,0.583,0.871,0.554,1.068,0.757,0.349,0.608,0.571,��,3.9,��
2022/04/28,22:10,0.585,0.871,0.552,1.066,0.754,0.352,0.608,0.571,��,4.1,��
2022/04/28,22:20,0.583,0.869,0.552,1.068,0.754,0.350,0.608,0.570,��,4.4,��
2022/04/28,22:30,0.583,0.870,0.552,1.065,0.754,0.350,0.609,0.570,��,4.6,��
2022/04/28,22:40,0.584,0.872,0.553,1.067,0.755,0.349,0.609,0.571,��,4.2,��
2022/04/28,22:50,0.585,0.869,0.554,1.066,0.756,0.352,0.609,0.571,��,4.6,��
2022/04/28,23:00,0.583,0.872,0.554,1.065,0.757,0.350,0.607,0.570,��,5.0,��
2022/04/28,23:10,0.582,0.870,0.554,1.065,0.755,0.350,0.609,0.569,��,4.7,��
2022/04/28,23:20,0.582,0.871,0.553,1.067,0.756,0.350,0.608,0.569,��,5.2,��
2022/04/28,23:30,0.583,0.871,0.552,1.067,0.753,0.350,0.609,0.571,��,5.2,��
2022/04/28,23:40,0.584,0.869,0.552,1.066,0.755,0.351,0.609,0.572,��,5.3,��
2022/04/28,23:50,0.584,0.871,0.553,1.067,0.755,0.349,0.608,0.570,��,4.3,��
